Regional Weather Roundup
Issued by NWS Goodland, KS

Home | Current Version | Previous Version | Text Only | Print | Product List | Glossary Off
Versions: 1 2 3 4 5 6 7 8 9 10 11 12 13 14 15 16 17 18 19 20 21 22 23 24 25 26 27 28 29 30 31 32 33 34 35 36 37 38 39 40 41 42 43 44 45 46 47 48 49 50

000
ASUS43 KGLD 200159
RWRGLD

GOODLAND FORECAST AREA HOURLY WEATHER ROUNDUP
NATIONAL WEATHER SERVICE GOODLAND KS
700 PM MST THU JAN 19 2017

...OFFICIAL OBSERVATIONS...

CITY           SKY/WX    TMP DP  RH WIND       PRES   REMARKS
GOODLAND KS    CLOUDY    34  34 100 S8        29.54F FOG
HILL CITY KS   CLOUDY    41  41 100 SE7       29.57F FOG
IMPERIAL NEB   FOG       35  34  96 S12       29.55R VSB 1/4
MCCOOK NEB     FOG       33  33 100 CALM      29.56R VSB 1/4
AKRON CO       CLOUDY    38  22  52 S5        29.52R
BURLINGTON CO  FOG       32  31  96 S10       29.54S VSB 1/4
LIMON CO       CLOUDY    21  20  96 N8        29.53F
$$

...UNOFFICIAL OBSERVATIONS...

CITY           SKY/WX    TMP DP  RH WIND       PRES   REMARKS
NORTON KS      FOG       36  34  93 SE6       29.55S VSB 1/4
SHARON SPRINGS   N/A     36  35  96 CALM        N/A
KIT CARSON CO    N/A     31  27  83 CALM        N/A
YUMA CO        FAIR      28  21  74 S5        29.53R
$$



USA.gov is the U.S. government's official web portal to all federal, state and local government web resources and services.